Location: Capelle
(50.3413°N, 1.9974°E)
Time: 00:01:21
(UTC+00:00)

Cosmos 1656 - Pass Details

Date: 12 January 2026
Orbit: 797 x 847 km, 71.1° (Epoch: 18 February)

Event Time Altitude Azimuth Distance (km) Brightness Sun altitude
Rises 18:27:06 0° 332° (NNW) 3,405 7.1 -20.6°
Reaches altitude 10° 18:29:37 10° 335° (NNW) 2,461 6.3 -21.0°
Maximum altitude 18:35:12 62° 56° (ENE) 934 3.6 -21.9°
Enters shadow 18:36:51 43° 115° (ESE) 1,145 4.0 -22.1°
